NT2C Weather Reports


Display with metric or nautical units.
time (UTC)temp
F
wind
direction
speed
MPH
gust
MPH
rain 1hr
in
rain 24hr
in
rain mn
in
humidity
%
barometer
mb
20260906203037 82 35 1.0 6.0 0.00 0.01 0.01 56 1006.8
20260906202537 82 51 1.0 6.0 0.00 0.01 0.01 56 1006.9
20260906202037 82 83 0.0 5.0 0.00 0.01 0.01 55 1006.9
20260906201538 82 49 1.0 5.0 0.00 0.01 0.01 55 1006.8
20260906201036 82 112 1.0 5.0 0.00 0.01 0.01 56 1006.7
20260906200537 82 108 1.0 7.0 0.00 0.01 0.01 56 1006.8
20260906200038 82 95 3.0 7.0 0.00 0.01 0.01 55 1006.8
20260906195537 82 99 2.0 11.0 0.00 0.01 0.01 57 1006.7
20260906195036 82 61 4.0 11.0 0.00 0.01 0.01 56 1006.6
20260906194536 82 52 2.0 11.0 0.00 0.01 0.01 57 1006.8
20260906194035 82 85 3.0 11.0 0.00 0.01 0.01 57 1006.8
20260906193535 82 113 2.0 8.0 0.00 0.01 0.01 57 1006.8
20260906193135 82 119 1.0 8.0 0.00 0.01 0.01 58 1006.8
20260906192535 82 55 3.0 8.0 0.00 0.01 0.01 58 1006.9
20260906192035 82 93 1.0 6.0 0.00 0.01 0.01 59 1006.8
20260906191534 82 101 2.0 7.0 0.00 0.01 0.01 58 1006.8
20260906191033 82 28 2.0 7.0 0.00 0.01 0.01 59 1006.7
20260906190535 82 103 1.0 7.0 0.00 0.01 0.01 60 1006.9
20260906190035 82 53 1.0 5.0 0.00 0.01 0.01 60 1006.8
20260906185533 82 338 1.0 7.0 0.00 0.01 0.01 59 1006.9
20260906185033 82 46 2.0 7.0 0.00 0.01 0.01 60 1006.9
20260906184534 82 96 3.0 7.0 0.00 0.01 0.01 60 1007.0
20260906184031 82 208 2.0 8.0 0.00 0.01 0.01 59 1006.9
20260906183532 81 111 2.0 8.0 0.00 0.01 0.01 62 1006.8
20260906183042 82 44 3.0 7.0 0.00 0.01 0.01 60 1006.9
20260906182531 81 138 1.0 7.0 0.00 0.01 0.01 63 1007.0
20260906182031 81 49 3.0 9.0 0.00 0.01 0.01 61 1007.0
20260906181531 82 117 0.0 10.0 0.00 0.01 0.01 61 1007.0
20260906181030 82 77 2.0 5.0 0.00 0.01 0.01 62 1007.1
20260906180528 81 293 0.0 7.0 0.00 0.01 0.01 64 1007.0
20260906180028 81 124 3.0 7.0 0.00 0.01 0.01 62 1007.2
20260906175528 81 139 2.0 8.0 0.00 0.03 0.01 63 1007.2
20260906175031 81 77 2.0 7.0 0.00 0.03 0.01 65 1007.2
20260906174527 80 51 2.0 7.0 0.00 0.03 0.01 62 1007.2
20260906174026 80 32 1.0 6.0 0.00 0.03 0.01 65 1007.2
20260906173525 80 8 2.0 7.0 0.00 0.03 0.01 64 1007.3
20260906173025 80 97 1.0 7.0 0.00 0.03 0.01 66 1007.2
20260906172524 80 84 3.0 7.0 0.00 0.03 0.01 65 1007.3
20260906172025 80 120 1.0 7.0 0.00 0.03 0.01 65 1007.3
20260906171525 80 103 3.0 9.0 0.00 0.03 0.01 65 1007.5
20260906171024 80 67 3.0 9.0 0.00 0.03 0.01 64 1007.4
20260906170524 80 124 1.0 6.0 0.00 0.03 0.01 66 1007.5
20260906170030 80 107 2.0 6.0 0.00 0.03 0.01 66 1007.6
20260906165523 80 191 1.0 6.0 0.00 0.17 0.01 66 1007.4
20260906165023 79 54 0.0 11.0 0.00 0.17 0.01 67 1007.6
20260906164522 79 57 5.0 11.0 0.00 0.17 0.01 66 1007.6
20260906164021 79 114 1.0 8.0 0.00 0.17 0.01 67 1007.6
20260906163520 79 70 3.0 8.0 0.00 0.17 0.01 66 1007.7
20260906163021 80 103 3.0 8.0 0.00 0.17 0.01 66 1007.8
20260906162520 79 349 1.0 9.0 0.00 0.17 0.01 67 1007.8
20260906162019 79 50 2.0 9.0 0.00 0.17 0.01 67 1007.7
20260906161523 79 66 0.0 7.0 0.00 0.17 0.01 67 1007.8
20260906161020 78 56 3.0 7.0 0.00 0.17 0.01 69 1007.9
20260906160517 79 101 1.0 7.0 0.00 0.17 0.01 69 1007.8
20260906160018 79 18 3.0 7.0 0.00 0.17 0.01 68 1007.8
20260906155517 78 95 1.0 7.0 0.00 0.17 0.01 69 1007.9
20260906155015 78 327 1.0 7.0 0.00 0.17 0.01 68 1008.0
20260906154516 78 43 2.0 7.0 0.00 0.17 0.01 68 1008.0
20260906154018 78 66 2.0 6.0 0.00 0.17 0.01 69 1008.1
20260906153514 78 58 2.0 6.0 0.00 0.17 0.01 68 1008.1
20260906153014 78 94 1.0 4.0 0.00 0.17 0.01 71 1008.1
20260906152512 77 78 1.0 4.0 0.00 0.17 0.01 71 1008.0
20260906152011 77 317 1.0 6.0 0.00 0.17 0.01 70 1007.9
20260906151512 77 27 3.0 6.0 0.00 0.17 0.01 70 1007.9
20260906151011 77 68 2.0 6.0 0.00 0.17 0.01 70 1007.8
20260906150511 76 102 2.0 6.0 0.00 0.17 0.01 72 1007.8
20260906150009 77 54 1.0 6.0 0.00 0.17 0.01 71 1007.8
20260906145509 76 52 0.0 4.0 0.00 0.17 0.01 72 1007.9
20260906145007 76 77 0.0 8.0 0.00 0.17 0.01 73 1007.8
20260906144506 75 17 3.0 8.0 0.00 0.17 0.01 73 1007.7
20260906144004 75 296 2.0 8.0 0.00 0.17 0.01 74 1007.7
20260906143502 75 293 0.0 7.0 0.00 0.17 0.01 75 1007.8
20260906143001 75 279 2.0 7.0 0.00 0.17 0.01 75 1007.7
20260906142600 75 99 0.0 4.0 0.00 0.17 0.01 77 1007.7
20260906142100 74 321 1.0 6.0 0.00 0.17 0.01 78 1007.7
20260906141557 74 338 1.0 6.0 0.00 0.17 0.01 78 1007.7
20260906141057 74 300 1.0 4.0 0.00 0.17 0.01 79 1007.7
20260906140557 73 21 0.0 4.0 0.00 0.17 0.01 79 1007.6
20260906140056 73 73 1.0 5.0 0.00 0.17 0.01 80 1007.6
20260906135554 73 9 1.0 5.0 0.00 0.17 0.01 80 1007.5
20260906135055 73 48 0.0 4.0 0.00 0.17 0.01 81 1007.5
20260906134559 72 246 0.0 5.0 0.00 0.17 0.01 81 1007.5
20260906134052 72 316 1.0 4.0 0.00 0.17 0.01 81 1007.5
20260906133551 72 126 0.0 3.0 0.00 0.17 0.01 82 1007.5
20260906133109 71 41 0.0 3.0 0.00 0.17 0.01 83 1007.5
20260906132549 71 297 0.0 3.0 0.00 0.17 0.01 83 1007.4
20260906132048 71 330 0.0 3.0 0.00 0.17 0.01 82 1007.5
20260906131547 71 38 0.0 4.0 0.00 0.17 0.01 83 1007.5
20260906131046 70 63 0.0 6.0 0.00 0.17 0.01 83 1007.4
20260906130546 70 37 1.0 6.0 0.00 0.17 0.01 82 1007.3
20260906130046 70 73 0.0 2.0 0.00 0.17 0.01 83 1007.5
20260906125545 70 216 0.0 4.0 0.00 0.17 0.01 85 1007.5
20260906125047 68 215 0.0 6.0 0.00 0.17 0.01 85 1007.3
20260906124544 68 65 3.0 6.0 0.00 0.17 0.01 85 1007.3
20260906124043 68 41 1.0 5.0 0.00 0.17 0.01 87 1007.3
20260906123544 67 346 0.0 4.0 0.00 0.17 0.01 88 1007.3
20260906123041 67 330 1.0 4.0 0.00 0.17 0.01 87 1007.3
20260906122541 67 321 1.0 5.0 0.00 0.17 0.01 87 1007.2
20260906122041 66 59 2.0 5.0 0.00 0.17 0.01 88 1007.0
20260906121538 66 86 0.0 5.0 0.00 0.17 0.01 88 1006.9
20260906121039 66 352 0.0 6.0 0.00 0.17 0.01 89 1006.9
20260906120538 66 58 2.0 6.0 0.00 0.17 0.01 89 1006.9
20260906120038 65 359 0.0 4.0 0.00 0.17 0.01 90 1006.8
20260906115537 65 338 0.0 4.0 0.00 0.17 0.01 91 1006.9
20260906115038 65 20 0.0 4.0 0.00 0.17 0.01 91 1007.0
20260906114536 65 358 1.0 4.0 0.00 0.17 0.01 91 1006.9
20260906114035 64 13 0.0 5.0 0.00 0.17 0.01 91 1006.7
20260906113534 64 359 1.0 5.0 0.00 0.17 0.01 91 1006.7
20260906113033 64 320 0.0 5.0 0.00 0.17 0.01 91 1006.7
20260906112532 64 41 0.0 3.0 0.00 0.17 0.01 91 1006.6
20260906112032 64 23 0.0 5.0 0.00 0.17 0.01 91 1006.5
20260906111537 64 56 0.0 6.0 0.00 0.17 0.01 91 1006.5
20260906111030 64 44 3.0 7.0 0.00 0.17 0.01 91 1006.5
20260906110529 64 59 1.0 5.0 0.00 0.17 0.01 91 1006.4
20260906110033 64 4 1.0 4.0 0.00 0.17 0.01 91 1006.3
20260906105527 65 53 1.0 4.0 0.00 0.17 0.01 91 1006.2
20260906105027 65 49 0.0 4.0 0.00 0.17 0.01 91 1006.3
20260906104534 65 41 0.0 6.0 0.00 0.17 0.01 91 1006.2
20260906104024 65 349 1.0 7.0 0.00 0.17 0.01 91 1006.1
20260906103524 65 8 2.0 9.0 0.00 0.17 0.01 91 1005.9
20260906103031 65 347 2.0 9.0 0.00 0.17 0.01 92 1005.9
20260906102521 65 41 1.0 8.0 0.00 0.17 0.01 92 1005.8
20260906102021 65 33 2.0 8.0 0.00 0.17 0.01 93 1005.7
20260906101528 65 14 2.0 6.0 0.00 0.17 0.01 93 1005.8
20260906101020 65 44 1.0 5.0 0.00 0.17 0.01 93 1005.7
20260906100520 65 41 1.0 5.0 0.00 0.17 0.01 93 1005.8
20260906100020 65 340 1.0 5.0 0.00 0.17 0.01 94 1005.7
20260906095519 65 27 1.0 5.0 0.00 0.17 0.01 94 1005.7
20260906095019 65 6 1.0 5.0 0.00 0.17 0.01 94 1005.7
20260906094520 65 356 1.0 4.0 0.00 0.17 0.01 95 1005.6
20260906094018 65 27 0.0 3.0 0.00 0.17 0.01 95 1005.7
20260906093519 65 347 0.0 3.0 0.00 0.17 0.01 95 1005.8
20260906093017 65 21 0.0 2.0 0.00 0.17 0.01 95 1005.7
20260906092517 65 53 0.0 2.0 0.00 0.17 0.01 95 1005.6
20260906092017 65 44 0.0 2.0 0.00 0.17 0.01 95 1005.6
20260906091516 66 64 0.0 2.0 0.00 0.17 0.01 95 1005.4
20260906091015 66 49 0.0 2.0 0.00 0.17 0.01 95 1005.3
20260906090515 66 70 0.0 4.0 0.00 0.17 0.01 95 1005.4
20260906090014 66 342 0.0 4.0 0.00 0.17 0.01 95 1005.2
20260906085514 66 282 0.0 3.0 0.00 0.17 0.01 95 1005.4
20260906085014 66 337 0.0 3.0 0.00 0.17 0.01 95 1005.4
20260906084514 67 51 0.0 2.0 0.00 0.17 0.01 95 1005.3
20260906084015 67 323 0.0 0.0 0.00 0.17 0.01 96 1005.3
20260906083511 67 323 0.0 0.0 0.00 0.17 0.01 96 1005.2
20260906083011 67 326 0.0 0.0 0.00 0.17 0.01 96 1005.2
20260906082511 67 326 0.0 0.0 0.00 0.17 0.01 96 1005.2
20260906082009 67 310 0.0 1.0 0.00 0.17 0.01 95 1005.1
20260906081509 67 310 0.0 1.0 0.00 0.17 0.01 96 1005.0
20260906081009 67 55 0.0 0.0 0.00 0.17 0.01 95 1005.0
20260906080509 67 55 0.0 0.0 0.00 0.17 0.01 95 1005.0
20260906080010 67 55 0.0 0.0 0.00 0.17 0.01 95 1004.8
20260906075507 67 55 0.0 0.0 0.00 0.17 0.01 95 1004.7
20260906075007 67 55 0.0 0.0 0.00 0.17 0.01 95 1004.7
20260906074507 68 55 0.0 0.0 0.00 0.17 0.01 95 1004.8
20260906074009 68 55 0.0 0.0 0.00 0.17 0.01 95 1004.8
20260906073506 68 55 0.0 0.0 0.00 0.17 0.01 95 1004.8
20260906073003 68 55 0.0 1.0 0.00 0.17 0.01 95 1004.8
20260906072503 68 55 0.0 1.0 0.00 0.17 0.01 95 1004.8
20260906072002 68 55 0.0 0.0 0.00 0.17 0.01 95 1004.8
20260906071502 68 55 0.0 0.0 0.00 0.17 0.01 95 1004.8
20260906071002 69 55 0.0 0.0 0.00 0.17 0.01 95 1004.8
20260906070501 69 55 0.0 1.0 0.00 0.17 0.01 95 1004.8
20260906070001 69 55 0.0 1.0 0.00 0.17 0.01 95 1004.7
20260906065501 69 55 0.0 1.0 0.00 0.17 0.01 95 1004.9
20260906065002 69 51 0.0 1.0 0.00 0.17 0.01 95 1004.9
20260906064602 69 51 0.0 3.0 0.00 0.17 0.01 95 1004.9
20260906064103 69 30 0.0 3.0 0.00 0.17 0.01 95 1004.9
20260906063559 69 19 0.0 2.0 0.00 0.17 0.01 95 1004.9
20260906063100 69 56 0.0 2.0 0.00 0.17 0.01 95 1004.9
20260906062600 69 53 0.0 2.0 0.00 0.17 0.01 95 1004.9
20260906062059 69 40 0.0 1.0 0.01 0.17 0.01 95 1004.7
20260906062002 69 40 0.0 1.0 0.01 0.17 0.01 95 1004.8
20260906061600 69 41 0.0 1.0 0.01 0.17 0.01 95 1004.8
20260906061100 69 41 0.0 1.0 0.01 0.17 0.01 95 1004.7
20260906060558 69 35 0.0 1.0 0.01 0.17 0.01 96 1004.7
20260906060059 69 35 0.0 1.0 0.01 0.17 0.01 95 1004.7
20260906055601 69 65 0.0 0.0 0.01 0.17 0.01 95 1004.7
20260906055058 69 58 0.0 0.0 0.01 0.17 0.01 95 1004.7
20260906054607 69 58 0.0 0.0 0.01 0.17 0.01 95 1004.8
20260906054057 69 58 0.0 0.0 0.01 0.17 0.01 95 1004.8
20260906053558 69 58 0.0 0.0 0.01 0.17 0.01 95 1004.8
20260906053056 69 58 0.0 0.0 0.01 0.17 0.01 95 1004.9
20260906052554 69 58 0.0 0.0 0.01 0.17 0.01 95 1005.0
20260906052053 69 58 0.0 0.0 0.00 0.16 0.00 95 1005.0
20260906051552 69 58 0.0 0.0 0.00 0.16 0.00 95 1005.2
20260906051052 70 58 0.0 0.0 0.00 0.16 0.00 95 1005.2
20260906050555 70 58 0.0 1.0 0.00 0.16 0.00 95 1005.0
20260906050112 70 58 0.0 1.0 0.00 0.16 0.00 95 1005.0
20260906045551 70 58 0.0 1.0 0.00 0.16 0.00 95 1004.9
20260906045050 70 58 0.0 1.0 0.00 0.16 0.00 95 1005.0
20260906044550 70 58 0.0 1.0 0.00 0.16 0.00 95 1005.0
20260906044048 70 58 0.0 1.0 0.00 0.16 0.00 95 1005.1
20260906043548 70 59 0.0 1.0 0.00 0.16 0.00 95 1005.1
20260906043048 70 58 0.0 1.0 0.00 0.16 0.00 95 1005.2
20260906042548 70 60 0.0 1.0 0.00 0.16 0.00 95 1005.3
20260906042047 71 60 0.0 1.0 0.00 0.16 0.00 95 1005.3
20260906041547 71 60 0.0 2.0 0.00 0.16 0.00 95 1005.3
20260906041047 71 60 0.0 2.0 0.00 0.16 0.00 95 1005.2
20260906040546 71 63 0.0 2.0 0.00 0.16 0.00 95 1005.1
20260906040045 71 348 0.0 0.0 0.00 0.16 0.00 95 1005.3
20260906035546 71 344 0.0 0.0 0.00 0.16 0.16 95 1005.3
20260906035044 71 344 0.0 0.0 0.00 0.16 0.16 95 1005.5
20260906034546 71 344 0.0 0.0 0.00 0.16 0.16 94 1005.5
20260906034044 71 344 0.0 0.0 0.00 0.16 0.16 95 1005.3
20260906033543 71 344 0.0 0.0 0.00 0.16 0.16 94 1005.1
20260906033053 71 344 0.0 0.0 0.00 0.16 0.16 94 1005.2
20260906032547 71 344 0.0 0.0 0.00 0.16 0.16 95 1005.4
20260906032043 71 344 0.0 0.0 0.00 0.16 0.16 94 1005.3
20260906031544 71 344 0.0 0.0 0.00 0.16 0.16 94 1005.2
20260906031044 71 344 0.0 0.0 0.00 0.16 0.16 94 1005.1
20260906030543 71 344 0.0 0.0 0.00 0.16 0.16 94 1005.1
20260906030043 72 344 0.0 0.0 0.00 0.16 0.16 94 1005.2
20260906025542 71 49 0.0 0.0 0.00 0.16 0.16 94 1005.0
20260906025044 72 49 0.0 1.0 0.00 0.16 0.16 94 1005.0
20260906024544 72 49 0.0 1.0 0.00 0.16 0.16 94 1005.1
20260906024042 72 46 0.0 1.0 0.00 0.16 0.16 94 1005.3
20260906023542 72 46 0.0 1.0 0.00 0.16 0.16 94 1005.2
20260906023041 71 303 0.0 0.0 0.00 0.16 0.16 94 1005.2
20260906022543 71 303 0.0 0.0 0.00 0.16 0.16 94 1005.2
20260906022041 71 303 0.0 0.0 0.00 0.16 0.16 94 1005.1
20260906021548 71 303 0.0 0.0 0.00 0.16 0.16 94 1005.1
20260906021040 72 303 0.0 0.0 0.00 0.16 0.16 94 1004.9
20260906020544 72 303 0.0 0.0 0.00 0.16 0.16 94 1004.9
20260906020049 72 303 0.0 0.0 0.00 0.16 0.16 94 1004.9
20260906015540 72 303 0.0 0.0 0.00 0.16 0.16 94 1004.8
20260906015040 72 303 0.0 0.0 0.00 0.16 0.16 93 1004.7
20260906014550 72 303 0.0 0.0 0.00 0.16 0.16 93 1004.9
20260906014041 72 303 0.0 0.0 0.00 0.16 0.16 93 1004.9
20260906013539 72 303 0.0 0.0 0.00 0.16 0.16 93 1004.8
20260906013040 72 299 0.0 0.0 0.00 0.16 0.16 93 1004.7
20260906012539 72 299 0.0 0.0 0.00 0.16 0.16 93 1004.5
20260906012039 72 299 0.0 0.0 0.00 0.16 0.16 93 1004.3
20260906011539 72 299 0.0 0.0 0.00 0.16 0.16 93 1004.2
20260906011039 72 299 0.0 0.0 0.00 0.16 0.16 92 1004.3
20260906010539 73 299 0.0 0.0 0.00 0.16 0.16 92 1004.3
20260906010038 73 299 0.0 1.0 0.00 0.16 0.16 92 1004.2
20260906005539 73 299 0.0 1.0 0.00 0.16 0.16 92 1004.0
20260906005041 73 299 0.0 1.0 0.00 0.16 0.16 92 1004.1
20260906004541 73 300 0.0 1.0 0.00 0.16 0.16 92 1004.0
20260906004038 73 301 0.0 1.0 0.00 0.16 0.16 92 1004.1
20260906003537 73 301 0.0 0.0 0.00 0.16 0.16 92 1003.9
20260906003037 74 309 0.0 1.0 0.00 0.16 0.16 91 1003.9
20260906002538 74 309 0.0 1.0 0.00 0.16 0.16 91 1003.8
20260906002037 74 299 0.0 1.0 0.00 0.16 0.16 91 1003.8
20260906001539 74 338 0.0 1.0 0.00 0.16 0.16 91 1003.7
20260906001037 74 338 0.0 1.0 0.00 0.16 0.16 91 1003.8
20260906000537 74 292 0.0 1.0 0.00 0.16 0.16 90 1003.7
20260906000041 74 292 0.0 1.0 0.00 0.16 0.16 90 1003.7
20260905235536 74 292 0.0 1.0 0.00 0.16 0.16 90 1003.7
20260905235037 75 292 0.0 1.0 0.00 0.16 0.16 90 1003.7
20260905234537 75 292 0.0 1.0 0.00 0.16 0.16 90 1003.8
20260905234036 75 292 0.0 1.0 0.00 0.16 0.16 90 1003.8
20260905233536 75 292 0.0 1.0 0.00 0.16 0.16 90 1003.8
20260905233040 75 291 0.0 1.0 0.00 0.16 0.16 89 1003.8
20260905232535 75 302 0.0 2.0 0.00 0.16 0.16 89 1003.8
20260905232035 75 302 0.0 3.0 0.00 0.16 0.16 89 1003.8
20260905231543 75 289 0.0 3.0 0.00 0.16 0.16 89 1003.7
20260905231034 75 311 0.0 1.0 0.00 0.16 0.16 89 1003.8
20260905230539 75 311 0.0 1.0 0.00 0.16 0.16 89 1003.8
20260905230046 76 311 0.0 2.0 0.00 0.16 0.16 88 1003.5
20260905225538 76 311 0.0 2.0 0.00 0.16 0.16 88 1003.5
20260905225036 76 304 0.0 1.0 0.00 0.16 0.16 88 1003.5
20260905224535 76 305 0.0 2.0 0.00 0.16 0.16 87 1003.6
20260905224034 77 305 0.0 2.0 0.00 0.16 0.16 86 1003.6
20260905223534 77 304 0.0 1.0 0.00 0.16 0.16 85 1003.7
20260905223035 78 233 0.0 0.0 0.00 0.16 0.16 84 1003.6
20260905222537 78 233 0.0 0.0 0.00 0.16 0.16 85 1003.5
20260905222033 77 233 0.0 0.0 0.00 0.16 0.16 85 1003.5
20260905221536 77 233 0.0 0.0 0.00 0.16 0.16 85 1003.5
20260905221033 77 233 0.0 2.0 0.00 0.16 0.16 85 1003.6
20260905220533 77 233 0.0 2.0 0.00 0.16 0.16 85 1003.5
20260905220033 77 264 0.0 1.0 0.00 0.16 0.16 85 1003.4
20260905215532 77 232 0.0 2.0 0.00 0.16 0.16 86 1003.3
20260905215032 76 238 0.0 2.0 0.00 0.16 0.16 86 1003.2
20260905214535 76 207 1.0 2.0 0.00 0.16 0.16 86 1003.2
20260905214033 76 223 0.0 2.0 0.00 0.16 0.16 86 1003.4
20260905213532 76 235 1.0 2.0 0.00 0.16 0.16 86 1003.3
20260905213031 76 240 0.0 3.0 0.00 0.16 0.16 86 1003.4
20260905212532 76 232 1.0 3.0 0.00 0.16 0.16 86 1003.4
20260905212031 76 229 0.0 4.0 0.00 0.16 0.16 86 1003.4
20260905211537 76 232 1.0 4.0 0.00 0.16 0.16 86 1003.4
20260905211032 76 235 1.0 4.0 0.00 0.16 0.16 86 1003.2
20260905210532 76 231 1.0 4.0 0.00 0.16 0.16 85 1003.2
20260905210030 77 225 0.0 4.0 0.00 0.16 0.16 86 1003.2
20260905205530 76 218 2.0 5.0 0.00 0.16 0.16 85 1003.1
20260905205031 76 224 2.0 5.0 0.00 0.16 0.16 85 1003.2
20260905204531 76 222 0.0 5.0 0.00 0.16 0.16 86 1003.2
20260905204030 75 234 1.0 6.0 0.00 0.16 0.16 86 1003.2
20260905203530 75 216 2.0 8.0 0.00 0.16 0.16 86 1003.2